This is the latest recevied weather packets stored in our database for station/object SV4FFB-13. If no packets are shown the sender has not sent any weather packets the latest 10 day(s).
| Time | Temp. | Humidity | Pressure | Rain* | Wind** | Luminosity | Snow |
|---|---|---|---|---|---|---|---|
| 1777792225 | 7.22° C | 51% | 1031.5 hPa | - | - | - | - |
| 1777791625 | 7.22° C | 51% | 1031.3 hPa | - | - | - | - |
| 1777791025 | 7.22° C | 51% | 1031.1 hPa | - | - | - | - |
| 1777790425 | 7.22° C | 50% | 1031.1 hPa | - | - | - | - |
| 1777789825 | 7.22° C | 51% | 1030.7 hPa | - | - | - | - |
| 1777789225 | 7.78° C | 52% | 1030.6 hPa | - | - | - | - |
| 1777788626 | 7.78° C | 54% | 1030.6 hPa | - | - | - | - |
| 1777788025 | 7.78° C | 56% | 1030.3 hPa | - | - | - | - |
| 1777787425 | 7.78° C | 57% | 1030.1 hPa | - | - | - | - |
| 1777786825 | 8.33° C | 60% | 1030.1 hPa | - | - | - | - |
| 1777786225 | 8.33° C | 64% | 1029.6 hPa | - | - | - | - |
| 1777785625 | 8.33° C | 67% | 1029 hPa | - | - | - | - |
| 1777785028 | 8.33° C | 69% | 1028.7 hPa | - | - | - | - |
| 1777784425 | 8.33° C | 69% | 1028.8 hPa | - | - | - | - |
| 1777783825 | 8.33° C | 69% | 1028.7 hPa | - | - | - | - |
| 1777783225 | 8.33° C | 69% | 1028.6 hPa | - | - | - | - |
| 1777782625 | 8.33° C | 72% | 1028.5 hPa | - | - | - | - |
| 1777782026 | 8.33° C | 68% | 1028.5 hPa | - | - | - | - |
| 1777781425 | 7.78° C | 65% | 1028.4 hPa | - | - | - | - |
| 1777780825 | 7.22° C | 65% | 1028.2 hPa | - | - | - | - |
| 1777780226 | 7.22° C | 69% | 1027.9 hPa | - | - | - | - |
| 1777779625 | 7.22° C | 74% | 1027.8 hPa | - | - | - | - |
| 1777779026 | 7.22° C | 79% | 1027.6 hPa | - | - | - | - |
| 1777778425 | 7.22° C | 87% | 1027.6 hPa | - | - | - | - |
| 1777777825 | 7.22° C | 91% | 1027.6 hPa | - | - | - | - |
* Rain since midnight (hover to see other rain measurements)
** Current wind speed in m/s (hover to see current wind gust speed)